• In Deutschland
  • Länderverzeichnis
  • Für 7 Tage
  • Wassertemperatur
  • Satellitenkarten
  • Wetterkarte
  • Widgets
  • user-avatar
    Anmelden

    Stündliche Wetter Leticia

    Heute, 23 Juli, Montag

    Zeit Temperatur Niederschläge Wind Luftdruck Luftfeuchtigkeit
    00:00 +22°C° 0 mm 0 m/S 752 mmHg 79%
    01:00 +22°C° 0 mm 0 m/S 752 mmHg 80%
    02:00 +22°C° 0 mm 0 m/S 752 mmHg 80%
    03:00 +21°C° 0 mm 0 m/S 752 mmHg 81%
    04:00 +21°C° 0 mm 0 m/S 752 mmHg 82%
    05:00 +22°C° 0 mm 0 m/S 753 mmHg 81%
    06:00 +22°C° 0 mm 0 m/S 753 mmHg 80%
    07:00 +23°C° 0 mm 0 m/S 754 mmHg 78%
    08:00 +25°C° 0 mm 0 m/S 754 mmHg 68%
    09:00 +30°C° 0 mm 1 m/S 754 mmHg 58%
    10:00 +33°C° 0 mm 1 m/S 754 mmHg 48%
    11:00 +34°C° 0 mm 1 m/S 753 mmHg 45%
    12:00 +35°C° 0 mm 1 m/S 753 mmHg 41%
    13:00 +36°C° 0 mm 1 m/S 752 mmHg 37%
    14:00 +35°C° 0 mm 1 m/S 752 mmHg 42%
    15:00 +32°C° 0 mm 0 m/S 751 mmHg 47%
    16:00 +31°C° 0 mm 0 m/S 750 mmHg 51%
    17:00 +29°C° 0 mm 0 m/S 751 mmHg 56%
    18:00 +28°C° 0 mm 0 m/S 751 mmHg 61%
    19:00 +26°C° 0 mm 0 m/S 751 mmHg 66%
    20:00 +25°C° 0 mm 0 m/S 752 mmHg 68%
    21:00 +25°C° 0 mm 0 m/S 753 mmHg 70%
    22:00 +24°C° 0 mm 0 m/S 753 mmHg 72%
    23:00 +24°C° 0 mm 0 m/S 753 mmHg 73%

    Morgen, 24 Juli, Dienstag

    Zeit Temperatur Niederschläge Wind Luftdruck Luftfeuchtigkeit
    00:00 +23°C° 0 mm 0 m/S 753 mmHg 75%
    01:00 +23°C° 0 mm 0 m/S 753 mmHg 76%
    02:00 +22°C° 0 mm 0 m/S 753 mmHg 77%
    03:00 +22°C° 0 mm 0 m/S 753 mmHg 79%
    04:00 +22°C° 0 mm 0 m/S 753 mmHg 80%
    05:00 +22°C° 0 mm 0 m/S 753 mmHg 79%
    06:00 +23°C° 0 mm 0 m/S 754 mmHg 78%
    07:00 +23°C° 0 mm 0 m/S 754 mmHg 78%
    08:00 +28°C° 0 mm 1 m/S 754 mmHg 67%
    09:00 +31°C° 0 mm 1 m/S 754 mmHg 57%
    10:00 +34°C° 0 mm 1 m/S 755 mmHg 46%
    11:00 +35°C° 0 mm 1 m/S 754 mmHg 42%
    12:00 +37°C° 0 mm 2 m/S 753 mmHg 38%
    13:00 +38°C° 0 mm 2 m/S 752 mmHg 33%
    14:00 +38°C° 0 mm 2 m/S 751 mmHg 35%
    15:00 +36°C° 0 mm 1 m/S 751 mmHg 37%
    16:00 +36°C° 0 mm 1 m/S 750 mmHg 38%
    17:00 +34°C° 0 mm 1 m/S 751 mmHg 45%
    18:00 +29°C° 0 mm 0 m/S 751 mmHg 52%
    19:00 +26°C° 0 mm 0 m/S 752 mmHg 60%
    20:00 +26°C° 0 mm 0 m/S 752 mmHg 61%
    21:00 +26°C° 0 mm 0 m/S 753 mmHg 62%
    22:00 +25°C° 0 mm 0 m/S 753 mmHg 63%
    23:00 +25°C° 0 mm 0 m/S 753 mmHg 64%

    übermorgen, 25 Juli, Mittwoch

    Zeit Temperatur Niederschläge Wind Luftdruck Luftfeuchtigkeit
    00:00 +25°C° 0 mm 0 m/S 753 mmHg 64%
    01:00 +24°C° 0 mm 0 m/S 753 mmHg 65%
    02:00 +24°C° 0 mm 0 m/S 752 mmHg 67%
    03:00 +23°C° 0 mm 0 m/S 752 mmHg 69%
    04:00 +23°C° 0 mm 0 m/S 752 mmHg 70%
    05:00 +23°C° 0 mm 0 m/S 753 mmHg 71%
    06:00 +23°C° 0 mm 0 m/S 753 mmHg 71%
    07:00 +23°C° 0 mm 0 m/S 754 mmHg 71%
    08:00 +24°C° 0 mm 0 m/S 754 mmHg 71%
    09:00 +24°C° 0 mm 0 m/S 755 mmHg 72%
    10:00 +25°C° 0 mm 0 m/S 755 mmHg 72%
    11:00 +26°C° 0 mm 0 m/S 755 mmHg 65%
    12:00 +28°C° 0 mm 0 m/S 754 mmHg 59%
    13:00 +30°C° 0 mm 0 m/S 753 mmHg 52%
    14:00 +30°C° 0 mm 0 m/S 753 mmHg 50%
    15:00 +32°C° 0 mm 1 m/S 752 mmHg 48%
    16:00 +32°C° 0 mm 1 m/S 751 mmHg 47%
    17:00 +30°C° 0 mm 1 m/S 752 mmHg 54%
    18:00 +26°C° 0 mm 0 m/S 752 mmHg 61%
    19:00 +24°C° 0 mm 0 m/S 753 mmHg 69%
    20:00 +24°C° 0 mm 0 m/S 753 mmHg 70%
    21:00 +23°C° 0 mm 0 m/S 754 mmHg 70%
    22:00 +23°C° 0 mm 0 m/S 754 mmHg 71%
    23:00 +23°C° 0 mm 0 m/S 754 mmHg 72%

    26 Juli, Donnerstag

    Zeit Temperatur Niederschläge Wind Luftdruck Luftfeuchtigkeit
    00:00 +25°C° 0 mm 1 m/S 754 mmHg 73%
    01:00 +25°C° 0 mm 1 m/S 754 mmHg 75%
    02:00 +25°C° 0 mm 1 m/S 753 mmHg 78%
    03:00 +25°C° 0 mm 1 m/S 753 mmHg 81%
    04:00 +22°C° 0 mm 0 m/S 753 mmHg 84%
    05:00 +23°C° 0 mm 0 m/S 754 mmHg 84%
    06:00 +23°C° 0 mm 0 m/S 754 mmHg 85%
    07:00 +23°C° 0 mm 0 m/S 755 mmHg 85%
    08:00 +24°C° 0 mm 0 m/S 755 mmHg 81%
    09:00 +25°C° 0 mm 0 m/S 755 mmHg 77%
    10:00 +26°C° 0 mm 0 m/S 756 mmHg 73%
    11:00 +29°C° 0 mm 0 m/S 755 mmHg 64%
    12:00 +31°C° 0 mm 0 m/S 754 mmHg 55%
    13:00 +33°C° 0 mm 0 m/S 753 mmHg 45%
    14:00 +33°C° 0 mm 0 m/S 752 mmHg 46%
    15:00 +32°C° 0 mm 0 m/S 752 mmHg 46%
    16:00 +34°C° 0 mm 1 m/S 751 mmHg 46%
    17:00 +32°C° 0 mm 1 m/S 751 mmHg 53%
    18:00 +28°C° 0 mm 0 m/S 752 mmHg 60%
    19:00 +26°C° 0 mm 0 m/S 752 mmHg 67%
    20:00 +28°C° 0 mm 1 m/S 753 mmHg 69%
    21:00 +27°C° 0 mm 1 m/S 753 mmHg 72%
    22:00 +27°C° 0 mm 1 m/S 754 mmHg 75%
    23:00 +26°C° 0,1 mm 1 m/S 753 mmHg 80%

    27 Juli, Freitag

    Zeit Temperatur Niederschläge Wind Luftdruck Luftfeuchtigkeit
    00:00 +25°C° 0,1 mm 1 m/S 753 mmHg 85%
    01:00 +25°C° 0,1 mm 1 m/S 753 mmHg 91%
    02:00 +24°C° 0 mm 1 m/S 753 mmHg 93%
    03:00 +24°C° 0 mm 1 m/S 753 mmHg 95%
    04:00 +23°C° 0 mm 1 m/S 753 mmHg 97%
    05:00 +24°C° 0 mm 1 m/S 753 mmHg 96%
    06:00 +24°C° 0 mm 1 m/S 754 mmHg 95%
    07:00 +24°C° 0 mm 1 m/S 754 mmHg 94%
    08:00 +27°C° 0 mm 1 m/S 755 mmHg 83%
    09:00 +29°C° 0 mm 1 m/S 755 mmHg 72%
    10:00 +31°C° 0 mm 1 m/S 755 mmHg 60%
    11:00 +32°C° 0,2 mm 1 m/S 754 mmHg 60%
    12:00 +33°C° 0,2 mm 1 m/S 753 mmHg 59%
    13:00 +32°C° 0,2 mm 0 m/S 752 mmHg 59%
    14:00 +33°C° 0,5 mm 1 m/S 752 mmHg 66%
    15:00 +31°C° 0,5 mm 1 m/S 751 mmHg 73%
    16:00 +30°C° 0,5 mm 1 m/S 751 mmHg 80%
    17:00 +28°C° 0,3 mm 1 m/S 751 mmHg 85%
    18:00 +27°C° 0,3 mm 1 m/S 752 mmHg 91%
    19:00 +25°C° 0,3 mm 1 m/S 753 mmHg 96%
    20:00 +25°C° 0 mm 1 m/S 753 mmHg 97%
    21:00 +25°C° 0 mm 1 m/S 753 mmHg 97%
    22:00 +24°C° 0 mm 1 m/S 753 mmHg 97%
    23:00 +24°C° 0 mm 1 m/S 753 mmHg 98%

    28 Juli, Samstag

    Zeit Temperatur Niederschläge Wind Luftdruck Luftfeuchtigkeit
    00:00 +24°C° 0 mm 1 m/S 753 mmHg 98%
    01:00 +24°C° 0 mm 1 m/S 753 mmHg 98%
    02:00 +24°C° 0 mm 1 m/S 752 mmHg 98%
    03:00 +23°C° 0 mm 1 m/S 752 mmHg 98%
    04:00 +23°C° 0 mm 1 m/S 752 mmHg 98%
    05:00 +24°C° 0 mm 1 m/S 753 mmHg 97%
    06:00 +24°C° 0 mm 1 m/S 753 mmHg 95%
    07:00 +25°C° 0 mm 1 m/S 754 mmHg 94%
    08:00 +27°C° 0 mm 1 m/S 754 mmHg 81%
    09:00 +30°C° 0 mm 1 m/S 754 mmHg 68%
    10:00 +33°C° 0 mm 1 m/S 754 mmHg 55%
    11:00 +33°C° 0 mm 1 m/S 753 mmHg 53%
    12:00 +34°C° 0 mm 1 m/S 752 mmHg 51%
    13:00 +32°C° 0 mm 0 m/S 751 mmHg 49%
    14:00 +31°C° 0,1 mm 0 m/S 751 mmHg 55%
    15:00 +30°C° 0,1 mm 0 m/S 751 mmHg 61%
    16:00 +29°C° 0,1 mm 0 m/S 750 mmHg 68%
    17:00 +30°C° 0,2 mm 1 m/S 751 mmHg 75%
    18:00 +28°C° 0,2 mm 1 m/S 751 mmHg 82%
    19:00 +26°C° 0,2 mm 1 m/S 752 mmHg 89%
    20:00 +26°C° 0,1 mm 1 m/S 752 mmHg 91%
    21:00 +25°C° 0,1 mm 1 m/S 753 mmHg 93%
    22:00 +25°C° 0,1 mm 1 m/S 753 mmHg 95%
    23:00 +25°C° 0 mm 1 m/S 753 mmHg 95%
    Mehr zeigen